Location: Владивосток
(43.1151°N, 131.8856°E)
Time: 11:29:09
(UTC+10:00)

NOAA 15 - Visible Passes

Search period start: 29 June 2022 00:00
Search period end: 09 July 2022 00:00
Orbit: 798 x 811 km, 98.6° (Epoch: 28 June)

Date Brightness Start Highest point End Pass type
(mag) Time Alt. Az. Time Alt. Az. Time Alt. Az.
29 Jun 7.7 21:52:26 10° W 21:53:18 10° W 21:54:09 10° WNW visible
03 Jul 7.6 21:50:42 10° W 21:51:56 11° W 21:53:11 10° WNW visible
07 Jul 7.5 21:49:04 10° WSW 21:50:35 11° W 21:52:06 10° WNW visible
08 Jul 7.1 21:21:12 10° SW 21:24:59 20° W 21:28:47 10° NW visible
